Weather History for Wheaton NDB, MN

Change the Weather History Date:

Friday, March 7, 2014

  Actual Average Record
Temperature  
Mean Temperature 24 °F -  
Max Temperature 35 °F 35 °F 71 °F (1987)
Min Temperature 12 °F 12 °F -18 °F (2008)
Degree Days  
Heating Degree Days 42    
Moisture  
Dew Point 20 °F    
Average Humidity 85    
Maximum Humidity 93    
Minimum Humidity 74    
Precipitation  
Precipitation 0.01 in - - ()
Sea Level Pressure  
Sea Level Pressure 30.06 in    
Wind  
Wind Speed 14 mph (NW)    
Max Wind Speed 26 mph    
Max Gust Speed 36 mph    
Visibility 8 miles    
Events Snow    
Averages and records for this station are not official NWS values.
T = Trace of Precipitation, MM = Missing Value Source: NWS Daily Summary

Daily Weather History Graph

Daily Weather History Graph

Search for Another Location

Airport:

Trip Planner

Search our weather history database for the weather conditions in past years. The results will help you decide how hot, cold, wet, or windy it might be!

Date:

Astronomy

Mar. 07, 2014 Rise Set
Actual Time 6:53 AM CST 6:21 PM CST
Civil Twilight 6:24 AM CST 6:51 PM CST
Nautical Twilight 5:49 AM CST 7:25 PM CST
Astronomical Twilight 5:14 AM CST 8:00 PM CST
Moon 10:28 AM CST (3/7) 12:45 AM CST (3/7)
Length of Visible Light 12h 26m
Length of Day
11h 27m
Waxing Crescent, 42% of the Moon is Illuminated
Mar 7
Waxing Crescent
Mar 8
First Quarter
Mar 16
Full
Mar 23
Last Quarter
Mar 30
New

Hourly Weather History & Observations

Time (CST) Temp. Windchill Dew Point Humidity Pressure Visibility Wind Dir Wind Speed Gust Speed Precip Events Conditions
12:14 AM 33.8 °F 30.8 °F 32.0 °F 93% 29.74 in 4.0 mi SSE 3.5 mph - N/A   Mostly Cloudy
12:34 AM 33.8 °F - 32.0 °F 93% 29.74 in 4.0 mi Calm Calm - N/A   Mostly Cloudy
12:54 AM 33.8 °F 30.8 °F 30.2 °F 87% 29.75 in 4.0 mi SW 3.5 mph - N/A   Mostly Cloudy
1:14 AM 33.8 °F - 30.2 °F 87% 29.75 in 4.0 mi Calm Calm - N/A   Overcast
1:34 AM 33.8 °F 30.8 °F 30.2 °F 87% 29.76 in 3.0 mi SW 3.5 mph - N/A   Overcast
1:54 AM 33.8 °F 30.8 °F 30.2 °F 87% 29.76 in 3.0 mi WSW 3.5 mph - N/A   Overcast
2:14 AM 33.8 °F 27.0 °F 32.0 °F 93% 29.78 in 2.5 mi West 8.1 mph - N/A Snow Light Snow
2:34 AM 35.6 °F 27.5 °F 33.8 °F 93% 29.77 in 3.0 mi WNW 11.5 mph 18.4 mph N/A Snow Light Snow
2:54 AM 35.6 °F 24.8 °F 33.8 °F 93% 29.78 in 3.0 mi NW 19.6 mph 25.3 mph 0.01 in Snow Light Snow
3:14 AM 35.6 °F 23.7 °F 33.8 °F 93% 29.79 in 7.0 mi NW 24.2 mph 31.1 mph N/A   Overcast
3:34 AM 33.8 °F 21.6 °F 30.2 °F 87% 29.81 in 4.0 mi NW 23.0 mph 28.8 mph N/A   Overcast
3:54 AM 32.0 °F 19.5 °F 28.4 °F 87% 29.83 in 5.0 mi NW 21.9 mph 29.9 mph N/A   Overcast
4:14 AM 30.2 °F 17.8 °F 28.4 °F 93% 29.84 in 5.0 mi NW 19.6 mph 27.6 mph N/A   Overcast
4:34 AM 30.2 °F 17.4 °F 26.6 °F 86% 29.85 in 5.0 mi NW 20.7 mph 29.9 mph N/A   Overcast
4:54 AM 30.2 °F 18.5 °F 26.6 °F 86% 29.86 in 5.0 mi NW 17.3 mph 27.6 mph N/A   Overcast
5:14 AM 28.4 °F 15.4 °F 24.8 °F 86% 29.88 in 5.0 mi NW 19.6 mph 29.9 mph N/A   Overcast
5:34 AM 28.4 °F 15.1 °F 24.8 °F 86% 29.89 in 5.0 mi NW 20.7 mph 29.9 mph N/A   Overcast
5:54 AM 26.6 °F 14.3 °F 23.0 °F 86% 29.91 in 7.0 mi NW 16.1 mph 28.8 mph N/A   Overcast
6:14 AM 26.6 °F 13.1 °F 23.0 °F 86% 29.92 in 7.0 mi NW 19.6 mph 31.1 mph N/A   Overcast
6:34 AM 26.6 °F 13.1 °F 21.2 °F 80% 29.94 in 10.0 mi NW 19.6 mph 29.9 mph N/A   Overcast
6:54 AM 24.8 °F 10.7 °F 21.2 °F 86% 29.95 in 10.0 mi NW 19.6 mph 26.5 mph N/A   Overcast
7:14 AM 24.8 °F 11.5 °F 21.2 °F 86% 29.97 in 10.0 mi NW 17.3 mph 24.2 mph N/A   Overcast
7:34 AM 24.8 °F 11.5 °F 21.2 °F 86% 29.98 in 10.0 mi NW 17.3 mph 26.5 mph N/A   Overcast
7:54 AM 24.8 °F 10.7 °F 19.4 °F 80% 29.99 in 10.0 mi NW 19.6 mph 28.8 mph N/A   Overcast
8:14 AM 24.8 °F 11.1 °F 19.4 °F 80% 30.00 in 10.0 mi NNW 18.4 mph 26.5 mph N/A   Overcast
8:34 AM 23.0 °F 7.6 °F 19.4 °F 86% 30.01 in 10.0 mi NNW 21.9 mph 27.6 mph N/A   Overcast
8:54 AM 21.2 °F 6.8 °F 19.4 °F 93% 30.02 in 5.0 mi NNW 17.3 mph 27.6 mph N/A Snow Light Snow
9:14 AM 21.2 °F 5.2 °F 17.6 °F 86% 30.03 in 7.0 mi NW 21.9 mph - N/A   Overcast
9:34 AM 21.2 °F 4.9 °F 17.6 °F 86% 30.04 in 7.0 mi NW 23.0 mph 27.6 mph N/A Snow Light Snow
9:54 AM 21.2 °F 6.0 °F 17.6 °F 86% 30.05 in 7.0 mi NW 19.6 mph 27.6 mph N/A Snow Light Snow
10:14 AM 23.0 °F 8.7 °F 17.6 °F 80% 30.05 in 10.0 mi NW 18.4 mph 27.6 mph N/A   Overcast
10:34 AM 24.8 °F 11.1 °F 19.4 °F 80% 30.06 in 10.0 mi NNW 18.4 mph 24.2 mph N/A   Overcast
10:54 AM 24.8 °F 10.7 °F 19.4 °F 80% 30.07 in 10.0 mi NW 19.6 mph 27.6 mph N/A   Overcast
11:14 AM 24.8 °F 11.1 °F 19.4 °F 80% 30.07 in 10.0 mi NW 18.4 mph 26.5 mph N/A   Overcast
11:34 AM 24.8 °F 10.3 °F 19.4 °F 80% 30.08 in 10.0 mi NW 20.7 mph 26.5 mph N/A   Overcast
11:54 AM 24.8 °F 10.3 °F 19.4 °F 80% 30.09 in 10.0 mi NNW 20.7 mph 28.8 mph N/A   Overcast
12:14 PM 24.8 °F 10.7 °F 19.4 °F 80% 30.10 in 10.0 mi NNW 19.6 mph 26.5 mph N/A   Overcast
12:34 PM 24.8 °F 10.7 °F 19.4 °F 80% 30.11 in 10.0 mi NNW 19.6 mph 32.2 mph N/A   Overcast
12:54 PM 24.8 °F 9.0 °F 19.4 °F 80% 30.11 in 10.0 mi NNW 25.3 mph 29.9 mph N/A   Overcast
1:14 PM 24.8 °F 10.7 °F 19.4 °F 80% 30.11 in 10.0 mi NW 19.6 mph 28.8 mph N/A   Overcast
1:34 PM 24.8 °F 10.3 °F 19.4 °F 80% 30.12 in 10.0 mi NW 20.7 mph 29.9 mph N/A   Overcast
1:54 PM 24.8 °F 10.0 °F 19.4 °F 80% 30.12 in 10.0 mi NW 21.9 mph 25.3 mph N/A   Overcast
2:14 PM 24.8 °F 9.3 °F 19.4 °F 80% 30.12 in 10.0 mi NNW 24.2 mph 29.9 mph N/A   Overcast
2:34 PM 24.8 °F 9.0 °F 19.4 °F 80% 30.12 in 10.0 mi NNW 25.3 mph 31.1 mph N/A   Mostly Cloudy
2:54 PM 26.6 °F 12.0 °F 19.4 °F 74% 30.12 in 10.0 mi NNW 23.0 mph 28.8 mph N/A   Scattered Clouds
3:14 PM 26.6 °F 12.4 °F 21.2 °F 80% 30.13 in 10.0 mi NNW 21.9 mph 32.2 mph N/A   Mostly Cloudy
3:34 PM 24.8 °F 8.7 °F 19.4 °F 80% 30.15 in 10.0 mi NNW 26.5 mph 35.7 mph N/A   Scattered Clouds
3:54 PM 24.8 °F 11.1 °F 19.4 °F 80% 30.16 in 10.0 mi NNW 18.4 mph 28.8 mph N/A   Scattered Clouds
4:14 PM 24.8 °F 9.0 °F 19.4 °F 80% 30.16 in 10.0 mi NNW 25.3 mph 29.9 mph N/A   Mostly Cloudy
4:34 PM 24.8 °F 10.0 °F 19.4 °F 80% 30.17 in 10.0 mi NNW 21.9 mph 29.9 mph N/A   Scattered Clouds
4:54 PM 23.0 °F 9.2 °F 19.4 °F 86% 30.19 in 10.0 mi NNW 17.3 mph 28.8 mph N/A   Scattered Clouds
5:14 PM 24.8 °F 11.9 °F 19.4 °F 80% 30.19 in 10.0 mi NW 16.1 mph 25.3 mph N/A   Mostly Cloudy
5:34 PM 23.0 °F 9.6 °F 17.6 °F 80% 30.21 in 10.0 mi NNW 16.1 mph 20.7 mph N/A   Mostly Cloudy
5:54 PM 21.2 °F 6.8 °F 17.6 °F 86% 30.21 in 10.0 mi NNW 17.3 mph 26.5 mph N/A   Clear
6:14 PM 21.2 °F 7.3 °F 15.8 °F 80% 30.23 in 10.0 mi NNW 16.1 mph 23.0 mph N/A   Scattered Clouds
6:34 PM 19.4 °F 7.9 °F 15.8 °F 86% 30.24 in 10.0 mi NNW 10.4 mph - N/A   Scattered Clouds
6:54 PM 19.4 °F 6.0 °F 15.8 °F 86% 30.25 in 10.0 mi NNW 13.8 mph - N/A   Scattered Clouds
7:14 PM 19.4 °F 6.0 °F 15.8 °F 86% 30.25 in 10.0 mi NNW 13.8 mph 19.6 mph N/A   Mostly Cloudy
7:34 PM 19.4 °F 6.0 °F 15.8 °F 86% 30.26 in 10.0 mi NNW 13.8 mph - N/A   Scattered Clouds
7:54 PM 17.6 °F 6.4 °F 15.8 °F 93% 30.26 in 10.0 mi NNW 9.2 mph - N/A   Scattered Clouds
8:14 PM 17.6 °F 5.7 °F 15.8 °F 93% 30.27 in 10.0 mi NW 10.4 mph 17.3 mph N/A   Clear
8:34 PM 17.6 °F 3.7 °F 14.0 °F 86% 30.27 in 10.0 mi NNW 13.8 mph - N/A   Clear
8:54 PM 17.6 °F 3.2 °F 14.0 °F 86% 30.28 in 10.0 mi NNW 15.0 mph - N/A   Clear
9:14 PM 15.8 °F 2.7 °F 12.2 °F 86% 30.29 in 10.0 mi NNW 11.5 mph 19.6 mph N/A   Clear
9:34 PM 15.8 °F 3.4 °F 12.2 °F 86% 30.30 in 10.0 mi NNW 10.4 mph - N/A   Clear
9:54 PM 15.8 °F 4.2 °F 12.2 °F 86% 30.30 in 10.0 mi NNW 9.2 mph - N/A   Clear
10:14 PM 14.0 °F 2.9 °F 12.2 °F 93% 30.30 in 10.0 mi NNW 8.1 mph - N/A   Clear
10:34 PM 14.0 °F 2.0 °F 10.4 °F 86% 30.30 in 10.0 mi NNW 9.2 mph - N/A   Clear
10:54 PM 14.0 °F 2.9 °F 10.4 °F 86% 30.31 in 10.0 mi NW 8.1 mph - N/A   Clear
11:14 PM 12.2 °F -0.2 °F 10.4 °F 92% 30.32 in 10.0 mi NW 9.2 mph - N/A   Clear
11:34 PM 12.2 °F -0.2 °F 10.4 °F 92% 30.33 in 10.0 mi NW 9.2 mph - N/A   Clear
11:54 PM 12.2 °F 0.7 °F 8.6 °F 85% 30.33 in 10.0 mi NW 8.1 mph - N/A   Clear